Tracking 17884 objects as of 5-December-2016
HD Live streaming from Space Station
objects crossing your sky now

COSMOS 2352

Track COSMOS 2352 now!
10-day predictions
COSMOS 2352 is classified as:


NORAD ID: 25363
Int'l Code: 1998-036A
Perigee: 1,317.9 km
Apogee: 1,880.7 km
Inclination: 82.6 °
Period: 118.0 minutes
Semi major axis: 7970 km
RCS: 1.1335 m2 (large)
Launch date: June 15, 1998
Source: Commonwealth of Independent States (former USSR) (CIS)
Launch site: PLESETSK MISSILE AND SPACE COMPLEX (PKMTR)

Satellites have a single simultaneous earth-space and space-earth channel.
Your satellite tracking list
Your tracking list is empty





NASA's NSSDC Master Catalog

Two Line Element Set (TLE):
1 25363U 98036A   16338.30596921 +.00000061 +00000-0 +40903-3 0  9997
2 25363 082.5930 257.3711 0353035 013.5596 101.9047 12.20087702822566
Source of the keplerian elements: AFSPC